Regional Weather Roundup
Issued by NWS

Home | Current Version | Previous Version | Text Only | Print | Product List | Glossary On
Versions: 1 2 3 4 5 6 7 8 9 10 11 12 13 14 15 16 17 18 19 20 21 22 23 24 25 26 27 28 29 30 31 32 33 34 35 36 37 38 39 40 41 42 43 44 45 46 47 48 49 50
000
ASCA42 TJSJ 312311
RWRPR
PUERTO RICO/U.S. VIRGIN ISLANDS HOURLY WEATHER ROUNDUP
NATIONAL WEATHER SERVICE SAN JUAN PR
700 PM AST FRI OCT 31 2014

PRZ001-004-010000-
PUERTO RICO

CITY           SKY/WX    TMP DP  RH WIND       PRES   REMARKS
SAN JUAN LMM   PTCLDY    82  75  78 S5        29.89R
MAYAGUEZ       PTCLDY    79  75  89 S5        29.88S
AGUADILLA      PTCLDY    77  75  94 CALM      29.88S
CEIBA          MOCLDY    79  75  89 CALM      29.91S
$$

PRZ006-007-010000-
U.S. VIRGIN ISLANDS

CITY           SKY/WX    TMP DP  RH WIND       PRES   REMARKS
CHRISTIANSTED  PTCLDY    82  73  74 SE9       29.90R
$$

HOURLY WEATHER ROUNDUP FOR THE NEWS MEDIA

CITY           SKY/WX    TMP DP  RH WIND       PRES   REMARKS
MIAMI          MOCLDY    81  64  56 W10       29.80R
ORLANDO        CLEAR     73  49  42 NW8       29.83R
NEW YORK       CLOUDY    54  42  64 NE7       29.91R
NEWARK         CLOUDY    54  42  64 NE8       29.90S
CHICAGO        CLOUDY    38  19  46 N25G37    30.28R WCI  27
HARTFORD       CLOUDY    50  41  71 NE9       29.97R
BOSTON         CLOUDY    50  37  61 NE14      30.02R
DALLAS         CLEAR     64  37  36 N12       30.30R
PHILADELPHIA   CLOUDY    51  36  56 NE10G18   29.89S



USA.gov is the U.S. government's official web portal to all federal, state and local government web resources and services.